FW6683 Weather Reports


time (UTC)temp
C
wind
direction
speed
KPH
gust
KPH
rain 1hr
cm
rain 24hr
cm
rain mn
cm
humidity
%
barometer
mb
20260508021048 8 281 0.0 0.0 0.00 0.00 0.00 86 1012.7
20260508020548 8 281 0.0 0.0 0.00 0.00 0.00 85 1012.8
20260508020053 8 281 0.0 0.0 0.00 0.00 0.00 85 1012.7
20260508015545 8 281 0.0 0.0 0.00 0.00 0.00 85 1012.6
20260508015044 8 281 0.0 0.0 0.00 0.00 0.00 84 1012.6
20260508014549 8 281 0.0 0.0 0.00 0.00 0.00 84 1012.6
20260508014043 9 281 0.0 0.0 0.00 0.00 0.00 84 1012.7
20260508013543 9 281 0.0 0.0 0.00 0.00 0.00 84 1012.6
20260508013041 9 281 0.0 0.0 0.00 0.00 0.00 84 1012.6
20260508012542 9 281 0.0 0.0 0.00 0.00 0.00 83 1012.6
20260508012039 9 281 0.0 0.0 0.00 0.00 0.00 83 1012.6
20260508011540 9 281 0.0 0.0 0.00 0.00 0.00 83 1012.6
20260508011038 10 281 0.0 1.6 0.00 0.00 0.00 82 1012.7
20260508010539 10 281 0.0 1.6 0.00 0.00 0.00 82 1012.7
20260508010049 10 280 0.0 0.0 0.00 0.00 0.00 82 1012.6
20260508005536 10 280 0.0 0.0 0.00 0.00 0.00 82 1012.6
20260508005036 10 280 0.0 0.0 0.00 0.00 0.00 81 1012.6
20260508004545 10 280 0.0 0.0 0.00 0.00 0.00 81 1012.6
20260508004035 10 280 0.0 3.2 0.00 0.00 0.00 81 1012.5
20260508003534 10 280 0.0 6.4 0.00 0.00 0.00 81 1012.6
20260508003034 10 279 0.0 8.0 0.00 0.00 0.00 81 1012.5
20260508002533 10 278 1.6 8.0 0.00 0.00 0.00 81 1012.6
20260508002033 10 271 0.0 4.8 0.00 0.00 0.00 81 1012.6
20260508001541 10 271 0.0 8.0 0.00 0.00 0.00 80 1012.7
20260508001032 10 127 0.0 8.0 0.00 0.00 0.00 80 1012.7
20260508000532 10 122 0.0 9.7 0.00 0.00 0.00 80 1012.6
20260508000031 10 120 0.0 11.3 0.00 0.00 0.00 80 1012.7
20260507235531 10 87 0.0 11.3 0.00 0.00 0.00 80 1012.7
20260507235029 10 149 0.0 4.8 0.00 0.00 0.00 80 1012.6
20260507234532 10 236 0.0 4.8 0.00 0.00 0.00 80 1012.5
20260507234027 10 292 0.0 4.8 0.00 0.00 0.00 80 1012.5
20260507233526 10 34 0.0 4.8 0.00 0.00 0.00 80 1012.5
20260507233026 10 82 0.0 4.8 0.00 0.00 0.00 79 1012.4
20260507232528 10 73 1.6 4.8 0.00 0.00 0.00 79 1012.3
20260507232024 10 61 0.0 3.2 0.00 0.00 0.00 79 1012.3
20260507231524 10 61 0.0 6.4 0.00 0.00 0.00 79 1012.2
20260507231024 10 61 0.0 6.4 0.00 0.00 0.00 79 1012.2
20260507230523 10 86 0.0 3.2 0.00 0.00 0.00 79 1012.3
20260507230023 10 86 0.0 4.8 0.00 0.00 0.00 79 1012.3
20260507225522 10 86 1.6 4.8 0.00 0.00 0.00 79 1012.2
20260507225024 10 44 0.0 3.2 0.00 0.00 0.00 79 1012.2
20260507224523 10 44 0.0 4.8 0.00 0.00 0.00 79 1012.1
20260507224021 10 20 0.0 4.8 0.00 0.00 0.00 79 1012.1
20260507223521 10 101 1.6 4.8 0.00 0.00 0.00 79 1012.2
20260507223021 10 102 0.0 9.7 0.00 0.00 0.00 78 1012.1
20260507222522 10 96 4.8 9.7 0.00 0.00 0.00 79 1012.1
20260507222023 10 93 0.0 6.4 0.00 0.00 0.00 79 1012.0
20260507221521 10 104 0.0 8.0 0.00 0.00 0.00 79 1012.0
20260507221025 10 309 1.6 9.7 0.00 0.00 0.00 79 1011.9
20260507220522 11 320 1.6 9.7 0.00 0.00 0.00 79 1011.8
20260507220021 11 39 0.0 9.7 0.00 0.00 0.00 79 1011.8
20260507215520 11 282 0.0 6.4 0.00 0.00 0.00 79 1011.7
20260507215020 11 271 1.6 6.4 0.00 0.00 0.00 78 1011.7
20260507214520 11 221 0.0 9.7 0.00 0.00 0.00 78 1011.6
20260507214019 11 255 1.6 9.7 0.00 0.00 0.00 79 1011.6
20260507213520 11 249 1.6 6.4 0.00 0.00 0.00 79 1011.6
20260507213027 11 262 0.0 3.2 0.00 0.00 0.00 79 1011.5
20260507212519 11 255 0.0 4.8 0.00 0.00 0.00 79 1011.5
20260507212021 11 279 0.0 8.0 0.00 0.00 0.00 79 1011.5
20260507211520 11 165 1.6 9.7 0.00 0.00 0.00 79 1011.5
20260507211022 11 325 0.0 9.7 0.00 0.00 0.00 79 1011.5
20260507210522 11 314 0.0 6.4 0.00 0.00 0.00 78 1011.3
20260507210019 11 307 0.0 9.7 0.00 0.00 0.00 78 1011.3
20260507205518 11 261 0.0 4.8 0.00 0.00 0.00 78 1011.3
20260507205018 11 147 0.0 9.7 0.00 0.00 0.00 78 1011.2
20260507204517 11 295 0.0 9.7 0.00 0.00 0.00 78 1011.3
20260507204017 11 207 3.2 8.0 0.00 0.00 0.00 78 1011.2
20260507203520 11 283 1.6 11.3 0.00 0.00 0.00 77 1011.1
20260507203036 11 281 1.6 11.3 0.00 0.00 0.00 77 1011.1
20260507202520 11 270 1.6 8.0 0.00 0.00 0.00 76 1011.1
20260507202016 11 320 1.6 8.0 0.00 0.00 0.00 76 1011.1
20260507201517 11 273 0.0 3.2 0.00 0.00 0.00 76 1011.0
20260507201017 11 333 0.0 4.8 0.00 0.00 0.00 75 1011.0
20260507200519 11 333 0.0 6.4 0.00 0.00 0.00 75 1011.0
20260507200017 11 293 0.0 8.0 0.00 0.00 0.00 75 1011.0
20260507195516 11 203 0.0 6.4 0.00 0.00 0.00 75 1011.0
20260507195016 12 217 0.0 4.8 0.00 0.00 0.00 75 1011.0
20260507194522 12 240 0.0 4.8 0.00 0.00 0.00 75 1011.0
20260507194017 12 295 0.0 4.8 0.00 0.00 0.00 74 1010.9
20260507193515 12 241 0.0 6.4 0.00 0.00 0.00 74 1010.9
20260507193018 12 228 0.0 8.0 0.00 0.00 0.00 74 1010.9
20260507192516 12 304 1.6 8.0 0.00 0.00 0.00 73 1010.8
20260507192015 12 232 0.0 4.8 0.00 0.00 0.00 73 1010.8
20260507191519 12 232 0.0 4.8 0.00 0.00 0.00 72 1010.8
20260507191017 12 297 0.0 4.8 0.00 0.00 0.00 72 1010.8
20260507190514 12 195 0.0 4.8 0.00 0.00 0.00 72 1010.8
20260507190015 12 186 0.0 3.2 0.00 0.00 0.00 72 1010.7
20260507185513 12 257 0.0 6.4 0.00 0.00 0.00 72 1010.6
20260507185013 13 181 1.6 6.4 0.00 0.00 0.00 71 1010.7
20260507184520 13 308 0.0 8.0 0.00 0.00 0.00 71 1010.5
20260507184013 13 316 0.0 8.0 0.00 0.00 0.00 70 1010.5
20260507183512 13 240 0.0 8.0 0.00 0.00 0.00 70 1010.5
20260507183014 13 293 0.0 8.0 0.00 0.00 0.00 69 1010.4
20260507182514 13 275 1.6 8.0 0.00 0.00 0.00 69 1010.4
20260507182013 13 269 0.0 9.7 0.00 0.00 0.00 68 1010.5
20260507181512 13 295 1.6 9.7 0.00 0.00 0.00 67 1010.4
20260507181018 13 306 0.0 4.8 0.00 0.00 0.00 67 1010.5
20260507180512 13 281 0.0 6.4 0.00 0.00 0.00 67 1010.4
20260507180017 13 281 0.0 6.4 0.00 0.00 0.00 67 1010.4
20260507175511 13 285 0.0 9.7 0.00 0.00 0.00 66 1010.4
20260507175014 13 300 3.2 9.7 0.00 0.00 0.00 66 1010.4
20260507174516 13 271 0.0 4.8 0.00 0.00 0.00 66 1010.4
20260507174015 13 287 0.0 6.4 0.00 0.00 0.00 66 1010.3
20260507173512 13 315 1.6 6.4 0.00 0.00 0.00 65 1010.4
20260507173018 13 236 0.0 6.4 0.00 0.00 0.00 65 1010.3
20260507172512 13 321 0.0 6.4 0.00 0.00 0.00 65 1010.3
20260507172009 13 139 0.0 4.8 0.00 0.00 0.00 64 1010.3
20260507171513 13 109 0.0 4.8 0.00 0.00 0.00 65 1010.3
20260507171009 13 141 0.0 4.8 0.00 0.00 0.00 66 1010.4
20260507170510 13 93 0.0 6.4 0.00 0.00 0.00 67 1010.4
20260507170009 13 272 1.6 6.4 0.00 0.00 0.00 70 1010.3
20260507165509 13 139 0.0 3.2 0.00 0.00 0.00 72 1010.4
20260507165009 13 160 0.0 3.2 0.00 0.00 0.00 74 1010.4
20260507164509 13 148 0.0 16.1 0.00 0.00 0.00 72 1010.4
20260507164008 13 151 1.6 12.9 0.00 0.00 0.00 72 1010.4
20260507163512 13 101 0.0 8.0 0.00 0.00 0.00 72 1010.4
20260507163007 14 186 1.6 8.0 0.00 0.00 0.00 72 1010.4
20260507162515 14 113 0.0 8.0 0.00 0.00 0.00 72 1010.4
20260507162008 14 137 0.0 9.7 0.00 0.00 0.00 72 1010.4
20260507161509 14 172 1.6 11.3 0.00 0.00 0.00 71 1010.4
20260507161007 14 141 3.2 9.7 0.00 0.00 0.00 70 1010.4
20260507160507 14 191 1.6 9.7 0.00 0.00 0.00 67 1010.3
20260507160009 14 142 3.2 11.3 0.00 0.00 0.00 63 1010.3
20260507155508 15 99 0.0 11.3 0.00 0.00 0.00 64 1010.4
20260507155009 15 93 3.2 9.7 0.00 0.00 0.00 63 1010.4
20260507154506 15 156 1.6 4.8 0.00 0.00 0.00 63 1010.3
20260507154009 15 88 1.6 4.8 0.00 0.00 0.00 61 1010.3
20260507153505 15 282 0.0 3.2 0.00 0.00 0.00 61 1010.4
20260507153006 15 130 0.0 4.8 0.00 0.00 0.00 61 1010.4
20260507152504 15 225 0.0 4.8 0.00 0.00 0.00 61 1010.5
20260507152008 15 155 0.0 8.0 0.00 0.00 0.00 60 1010.4
20260507151504 15 186 1.6 8.0 0.00 0.00 0.00 59 1010.4
20260507151005 15 169 1.6 4.8 0.00 0.00 0.00 58 1010.4
20260507150505 15 268 0.0 4.8 0.00 0.00 0.00 58 1010.5
20260507150004 15 3 1.6 4.8 0.00 0.00 0.00 59 1010.5
20260507145503 15 173 0.0 4.8 0.00 0.00 0.00 59 1010.5
20260507145005 15 269 0.0 4.8 0.00 0.00 0.00 60 1010.5
20260507144502 15 275 0.0 8.0 0.00 0.00 0.00 62 1010.5
20260507144002 15 270 0.0 8.0 0.00 0.00 0.00 61 1010.6
20260507143503 15 113 0.0 11.3 0.00 0.00 0.00 60 1010.6
20260507143001 15 167 1.6 11.3 0.00 0.00 0.00 58 1010.6
20260507142501 15 109 3.2 6.4 0.00 0.00 0.00 60 1010.6
20260507142000 15 176 0.0 9.7 0.00 0.00 0.00 62 1010.7
20260507141612 15 227 1.6 9.7 0.00 0.00 0.00 61 1010.7
20260507141100 15 165 0.0 4.8 0.00 0.00 0.00 61 1010.7
20260507140559 15 231 0.0 4.8 0.00 0.00 0.00 61 1010.7
20260507140106 15 308 1.6 4.8 0.00 0.00 0.00 62 1010.7
20260507135604 15 238 1.6 4.8 0.00 0.00 0.00 62 1010.8
20260507135101 14 181 1.6 6.4 0.00 0.00 0.00 60 1010.7
20260507134559 15 273 0.0 6.4 0.00 0.00 0.00 61 1010.8
20260507134059 15 176 0.0 4.8 0.00 0.00 0.00 59 1010.8
20260507133559 15 203 0.0 4.8 0.00 0.00 0.00 59 1010.8
20260507133147 15 290 0.0 8.0 0.00 0.00 0.00 58 1010.8
20260507132557 15 238 1.6 9.7 0.00 0.00 0.00 57 1010.8
20260507132058 15 323 3.2 9.7 0.00 0.00 0.00 57 1010.7
20260507131559 15 188 1.6 6.4 0.00 0.00 0.00 57 1010.8
20260507131058 15 200 1.6 14.5 0.00 0.00 0.00 56 1010.7
20260507130559 16 311 1.6 6.4 0.00 0.00 0.00 55 1010.7
20260507130105 16 155 1.6 8.0 0.00 0.00 0.00 54 1010.8
20260507125557 16 217 3.2 8.0 0.00 0.00 0.00 54 1010.9
20260507125059 16 293 1.6 8.0 0.00 0.00 0.00 55 1010.8
20260507124605 16 278 1.6 8.0 0.00 0.00 0.00 54 1010.9
20260507124053 15 276 0.0 8.0 0.00 0.00 0.00 54 1010.8
20260507123552 15 140 1.6 8.0 0.00 0.00 0.00 57 1010.9
20260507123052 15 125 0.0 9.7 0.00 0.00 0.00 57 1010.9
20260507122549 15 329 1.6 9.7 0.00 0.00 0.00 57 1011.0
20260507122049 15 49 1.6 8.0 0.00 0.00 0.00 58 1011.0
20260507121548 15 240 0.0 8.0 0.00 0.00 0.00 58 1011.0
20260507121048 15 292 1.6 6.4 0.00 0.00 0.00 59 1011.0
20260507120547 14 316 1.6 6.4 0.00 0.00 0.00 58 1011.1
20260507120046 14 185 1.6 6.4 0.00 0.00 0.00 58 1011.1
20260507115546 14 268 0.0 6.4 0.00 0.00 0.00 58 1011.1
20260507115047 14 112 0.0 6.4 0.00 0.00 0.00 57 1011.2
20260507114559 14 334 0.0 6.4 0.00 0.00 0.00 58 1011.2
20260507114044 14 213 0.0 6.4 0.00 0.00 0.00 58 1011.2
20260507113543 14 126 0.0 8.0 0.00 0.00 0.00 58 1011.2
20260507113042 14 151 1.6 11.3 0.00 0.00 0.00 59 1011.3
20260507112541 13 90 4.8 11.3 0.00 0.00 0.00 60 1011.4
20260507112043 13 182 0.0 4.8 0.00 0.00 0.00 60 1011.3
20260507111541 13 131 1.6 4.8 0.00 0.00 0.00 59 1011.4
20260507111041 13 155 1.6 4.8 0.00 0.00 0.00 58 1011.4
20260507110544 13 348 0.0 3.2 0.00 0.00 0.00 61 1011.3
20260507110044 13 345 0.0 3.2 0.00 0.00 0.00 61 1011.3
20260507105540 12 1 0.0 3.2 0.00 0.00 0.00 63 1011.4
20260507105039 12 1 0.0 1.6 0.00 0.00 0.00 63 1011.4
20260507104539 12 1 0.0 1.6 0.00 0.00 0.00 63 1011.5
20260507104037 12 1 0.0 4.8 0.00 0.00 0.00 63 1011.5
20260507103537 12 1 0.0 4.8 0.00 0.00 0.00 62 1011.6
20260507103043 12 15 0.0 4.8 0.00 0.00 0.00 63 1011.6
20260507102536 12 288 0.0 3.2 0.00 0.00 0.00 64 1011.6
20260507102036 12 288 0.0 3.2 0.00 0.00 0.00 63 1011.7
20260507101539 12 285 0.0 0.0 0.00 0.00 0.00 62 1011.7
20260507101036 12 285 0.0 1.6 0.00 0.00 0.00 63 1011.7
20260507100536 12 285 0.0 1.6 0.00 0.00 0.00 63 1011.6
20260507100037 12 285 0.0 1.6 0.00 0.00 0.00 61 1011.7
20260507095536 12 285 0.0 1.6 0.00 0.00 0.00 62 1011.7
20260507095035 12 284 0.0 3.2 0.00 0.00 0.00 62 1011.6
20260507094544 12 283 0.0 3.2 0.00 0.00 0.00 63 1011.7
20260507094034 12 277 0.0 3.2 0.00 0.00 0.00 61 1011.7
20260507093533 12 277 0.0 4.8 0.00 0.00 0.00 63 1011.7
20260507093033 12 275 0.0 4.8 0.00 0.00 0.00 63 1011.7
20260507092533 12 274 0.0 4.8 0.00 0.00 0.00 61 1011.7
20260507092032 12 272 0.0 3.2 0.00 0.00 0.00 64 1011.8
20260507091534 12 272 0.0 3.2 0.00 0.00 0.00 63 1011.8
20260507091035 12 272 1.6 6.4 0.00 0.00 0.00 63 1011.8
20260507090532 12 272 1.6 8.0 0.00 0.00 0.00 62 1011.8
20260507090031 13 255 3.2 8.0 0.00 0.00 0.00 62 1011.8
20260507085534 13 271 0.0 6.4 0.00 0.00 0.00 60 1011.8
20260507085031 13 281 0.0 6.4 0.00 0.00 0.00 60 1011.8
20260507084533 13 359 1.6 6.4 0.00 0.00 0.00 58 1011.9
20260507084030 13 315 1.6 4.8 0.00 0.00 0.00 59 1011.9
20260507083529 13 30 0.0 3.2 0.00 0.00 0.00 59 1012.0
20260507083026 13 34 0.0 4.8 0.00 0.00 0.00 62 1012.0
20260507082525 12 336 0.0 6.4 0.00 0.00 0.00 61 1012.0
20260507082025 12 336 0.0 6.4 0.00 0.00 0.00 62 1012.1
20260507081525 12 98 0.0 4.8 0.00 0.00 0.00 64 1012.1
20260507081023 12 94 1.6 4.8 0.00 0.00 0.00 59 1012.2
20260507080522 12 15 1.6 3.2 0.00 0.00 0.00 61 1012.1
20260507080020 12 110 0.0 4.8 0.00 0.00 0.00 62 1012.0
20260507075519 11 110 1.6 4.8 0.00 0.00 0.00 62 1012.1
20260507075018 11 110 0.0 1.6 0.00 0.00 0.00 64 1012.0
20260507074518 11 110 0.0 0.0 0.00 0.00 0.00 66 1012.0
20260507074013 11 110 0.0 0.0 0.00 0.00 0.00 66 1012.0
20260507073513 11 110 0.0 0.0 0.00 0.00 0.00 68 1012.0
20260507073012 10 110 0.0 0.0 0.00 0.00 0.00 68 1012.0
20260507072513 10 110 0.0 3.2 0.00 0.00 0.00 69 1012.0
20260507072010 10 110 0.0 3.2 0.00 0.00 0.00 69 1011.9
20260507071513 10 110 0.0 1.6 0.00 0.00 0.00 72 1011.9
20260507071009 10 110 0.0 0.0 0.00 0.00 0.00 73 1011.9
20260507070507 10 110 0.0 0.0 0.00 0.00 0.00 74 1011.9
20260507070012 10 110 0.0 0.0 0.00 0.00 0.00 73 1011.9
20260507065505 10 110 0.0 1.6 0.00 0.00 0.00 74 1011.9
20260507065003 10 110 0.0 1.6 0.00 0.00 0.00 74 1011.9
20260507064503 10 110 0.0 0.0 0.00 0.00 0.00 75 1011.9
20260507064003 10 110 0.0 1.6 0.00 0.00 0.00 75 1011.9
20260507063503 9 110 0.0 1.6 0.00 0.00 0.00 74 1011.9
20260507063102 9 110 0.0 3.2 0.00 0.00 0.00 75 1011.9
20260507062559 9 110 0.0 3.2 0.00 0.00 0.00 74 1011.9
20260507062059 9 110 0.0 1.6 0.00 0.00 0.00 75 1011.8
20260507061558 9 110 0.0 0.0 0.00 0.00 0.00 75 1011.8
20260507061057 8 110 0.0 1.6 0.00 0.00 0.00 75 1011.9
20260507060555 8 110 0.0 3.2 0.00 0.00 0.00 77 1011.9
20260507060058 8 110 0.0 4.8 0.00 0.00 0.00 78 1011.9
20260507055556 8 110 0.0 3.2 0.00 0.00 0.00 78 1011.9
20260507055057 8 110 0.0 1.6 0.00 0.00 0.00 78 1011.8
20260507054553 8 110 0.0 1.6 0.00 0.00 0.00 79 1011.8
20260507054052 8 110 0.0 1.6 0.00 0.00 0.00 79 1011.8
20260507053551 8 110 0.0 0.0 0.00 0.00 0.00 78 1011.7
20260507053053 8 110 0.0 1.6 0.00 0.00 0.00 79 1011.7
20260507052549 8 110 0.0 1.6 0.00 0.00 0.00 79 1011.6
20260507052050 8 110 0.0 1.6 0.00 0.00 0.00 80 1011.7
20260507051549 8 110 0.0 1.6 0.00 0.00 0.00 80 1011.7
20260507051048 8 110 0.0 6.4 0.00 0.00 0.00 80 1011.7
20260507050547 8 110 0.0 6.4 0.00 0.00 0.00 79 1011.5
20260507050048 8 118 0.0 3.2 0.00 0.00 0.00 79 1011.5
20260507045547 8 119 0.0 4.8 0.00 0.00 0.00 79 1011.6
20260507045047 8 119 1.6 4.8 0.00 0.00 0.00 79 1011.5
20260507044558 8 120 0.0 4.8 0.00 0.00 0.00 79 1011.5
20260507044045 8 120 1.6 4.8 0.00 0.00 0.00 79 1011.5
20260507043544 8 77 0.0 3.2 0.00 0.00 0.00 80 1011.6
20260507043045 8 56 0.0 3.2 0.00 0.00 0.00 81 1011.6
20260507042542 8 56 0.0 0.0 0.00 0.00 0.00 82 1011.7
20260507042041 8 56 0.0 3.2 0.00 0.00 0.00 83 1011.6
20260507041546 8 55 0.0 3.2 0.00 0.00 0.00 83 1011.7
20260507041041 8 55 0.0 0.0 0.00 0.00 0.00 83 1011.7
20260507040541 8 56 0.0 1.6 0.00 0.00 0.00 83 1011.8
20260507040044 8 56 0.0 1.6 0.00 0.00 0.00 83 1011.7
20260507035539 8 56 0.0 0.0 0.00 0.00 0.00 83 1011.8
20260507035039 8 56 0.0 0.0 0.00 0.00 0.00 83 1011.7
20260507034543 8 56 0.0 3.2 0.00 0.00 0.00 83 1011.7
20260507034038 8 55 0.0 3.2 0.00 0.00 0.00 82 1011.6
20260507033537 8 55 0.0 0.0 0.00 0.00 0.00 82 1011.7
20260507033048 8 55 0.0 0.0 0.00 0.00 0.00 82 1011.7
20260507032536 8 56 0.0 0.0 0.00 0.00 0.00 82 1011.8
20260507032040 8 55 0.0 0.0 0.00 0.00 0.00 82 1011.8
20260507031551 8 56 0.0 0.0 0.00 0.00 0.00 82 1011.8
20260507031039 9 55 0.0 0.0 0.00 0.00 0.00 82 1011.9
20260507030534 9 55 0.0 0.0 0.00 0.00 0.00 82 1011.9
20260507030042 9 55 0.0 0.0 0.00 0.00 0.00 82 1011.9
20260507025534 9 55 0.0 0.0 0.00 0.00 0.00 82 1011.8
20260507025036 9 55 0.0 0.0 0.00 0.00 0.00 81 1011.8
20260507024541 9 56 0.0 0.0 0.00 0.00 0.00 81 1011.9
20260507024033 9 56 0.0 0.0 0.00 0.00 0.00 81 1012.0
20260507023532 9 56 0.0 1.6 0.00 0.00 0.00 81 1011.9
20260507023032 9 56 0.0 1.6 0.00 0.00 0.00 81 1012.0
20260507022532 9 56 0.0 1.6 0.00 0.00 0.00 81 1012.0
20260507022034 9 56 0.0 0.0 0.00 0.00 0.00 81 1012.0
20260507021536 9 56 0.0 0.0 0.00 0.00 0.00 81 1012.0